#timestamp,LO_Frequency,Hit,StdDev 
1513195215.1,286046992.0,N
1513195235.9,286046998.9,N
1513195255.7,286046998.1,N
1513195275.5,286047001.0,N
1513195295.4,286046998.8,N
1513195315.2,286046998.9,N
1513195335.0,286047000.2,N
1513195335.9,286047000.2,N
1513195355.8,286046997.0,N
1513195375.6,286046999.1,N
1513195395.5,286046999.4,N
1513195415.3,286046996.7,N
1513195435.1,286046997.3,N
1513195455.9,286046995.8,N
1513195475.7,286046993.4,N
1513195495.6,286046995.3,N
1513195515.4,286046999.2,N
1513195535.2,286046996.1,N
1513195555.1,286046997.1,N
1513195556.0,286046997.1,N
1513195575.8,286046998.1,N
1513195595.7,286046999.7,N
1513195615.5,286047004.4,N
1513195635.3,286046998.8,N
1513195655.2,286047000.8,N
1513195675.0,286047004.2,N
1513195675.9,286047004.2,N
1513195695.8,286047005.5,N
1513195715.6,286047006.0,N
1513195735.4,286047002.7,N
1513195755.3,286047000.1,N
1513195775.1,286046997.8,N
1513195795.8,286046997.6,N
1513195815.7,286046995.1,N
1513195835.5,286046998.2,N
1513195855.4,286047001.1,N
1513195875.2,286046996.8,N
1513195895.0,286046997.0,N
1513195895.9,286046997.0,N
1513195915.8,286046999.3,N
1513195935.6,286047001.1,N
1513195955.5,286046995.2,N
1513195975.3,286046995.5,N
1513195995.1,286046998.6,N
1513196015.9,286046997.6,N
1513196035.7,286046996.4,N
1513196055.5,286046997.6,N
1513196075.4,286046996.6,N
1513196095.2,286047001.0,N
1513196115.1,286046999.5,N
1513196116.0,286046999.5,N
1513196135.8,286046999.8,N
1513196155.6,286046998.9,N
1513196175.5,286047001.0,N
1513196195.3,286046997.0,N
1513196215.2,286046994.9,N
1513196235.9,286046993.4,N
1513196255.7,286046997.6,N
1513196275.6,286046993.4,N
1513196325.4,286046993.3,E
1513196335.4,286046998.6,N
1513196355.2,286047005.9,P
1513196375.0,286046998.8,N
1513196375.9,286046998.8,N
1513196395.8,286047003.7,N
1513196415.6,286047001.6,N
1513196435.5,286047001.7,N
1513196455.3,286047001.9,N
1513196475.1,286047002.3,N
1513196495.9,286047005.5,N
1513196515.7,286047003.1,N
1513196535.5,286046996.8,N
1513196555.4,286047000.3,N
1513196575.2,286047006.3,N
1513196595.1,286047006.4,N
1513196596.0,286047006.4,N
1513196615.8,286047010.2,Y
1513196635.7,286047004.8,P
1513196655.5,286047005.2,P
1513196675.3,286047002.9,N
1513196695.2,286047004.1,Y
1513196715.0,286046999.9,P
1513196715.9,286046999.9,N
1513196735.8,286047002.3,N
1513196755.6,286047002.4,N
1513196775.4,286047003.8,N
1513196795.3,286047002.9,N
1513196815.1,286047004.7,Y
1513196835.8,286046999.5,P
1513196855.7,286046995.9,P
1513196875.5,286046992.8,N
1513196895.4,286046990.3,N
1513196915.2,286046995.7,N
1513196935.0,286046991.9,N
1513196935.9,286046991.9,N
1513196955.8,286046990.5,N
1513196975.6,286046991.2,N
1513196995.5,286046987.3,Y
1513197015.3,286046998.4,P
1513197035.1,286047002.7,N
1513197055.9,286046999.2,N
1513197075.7,286047002.4,N
1513197095.5,286047000.8,N
1513197115.4,286046999.7,N
1513197135.2,286047006.6,N
1513197155.1,286047007.5,N
1513197156.0,286047007.5,N
1513197175.8,286047004.7,N
1513197195.6,286047001.9,N
1513197215.5,286046998.8,N
1513197235.3,286046996.6,N
1513197255.2,286046999.3,N
1513197275.9,286046999.0,N
1513197295.7,286047001.3,N
1513197315.6,286047002.4,N
1513197335.4,286047001.9,N
1513197355.2,286047009.0,N
1513197375.1,286047006.7,N
1513197376.0,286047006.7,N
1513197395.8,286047003.8,N
1513197415.7,286047006.5,N
1513197435.5,286047009.0,N
1513197455.3,286047004.9,N
1513197475.2,286047009.5,N
1513197495.0,286047011.4,N
1513197495.9,286047011.4,N
1513197515.8,286047011.4,N
1513197535.6,286047012.3,N
1513197555.4,286047002.9,N
1513197575.3,286047010.8,N
1513197595.1,286047008.5,N
1513197615.9,286047010.5,N
1513197635.7,286047009.5,N
1513197655.5,286047013.2,N
1513197675.4,286047015.6,Y
1513197695.2,286047004.0,P
1513197715.0,286047002.3,N
1513197715.9,286047002.3,N
1513197735.8,286047004.7,N
1513197755.6,286047012.0,Y
1513197775.5,286047006.3,P
1513197795.3,286047004.5,P
1513197815.1,286047004.4,P
1513197835.9,286047003.2,Y
1513197855.7,286047002.3,P
1513197875.6,286047001.3,N
1513197895.4,286047002.8,N
1513197915.2,286046998.6,N
1513197935.1,286047000.9,N
1513197936.0,286047000.9,N
1513197955.8,286047002.5,N
1513197975.7,286046996.8,N
1513197995.5,286047001.1,N
1513198015.3,286047005.5,N
1513198035.2,286047002.8,N
1513198055.0,286047001.2,N
1513198055.9,286047001.2,N
1513198075.7,286046998.7,N
1513198095.6,286046997.6,N
1513198115.4,286046995.7,N
1513198135.3,286046994.1,N
1513198155.1,286046995.8,N
1513198156.0,286046995.8,N
1513198175.8,286046997.6,N
1513198195.7,286046995.2,N
1513198215.5,286047011.9,Y
1513198265.4,286046996.7,E
1513198275.3,286046996.5,N
1513198295.1,286046998.6,P
1513198315.9,286046993.9,P
1513198335.7,286046989.3,Y
1513198355.6,286046990.8,P
1513198375.4,286046988.0,P
1513198395.2,286046988.1,P
1513198415.1,286046988.8,Y
1513198416.0,286046988.8,P
1513198435.8,286046996.8,P
1513198455.7,286046998.6,N
1513198475.5,286047005.9,N
1513198495.3,286047002.1,N
1513198515.2,286047002.7,N
1513198535.0,286046999.1,N
1513198535.9,286046999.1,N
1513198555.8,286046998.0,N
1513198575.6,286046994.9,N
1513198595.4,286047000.4,N
1513198615.3,286047004.8,N
1513198635.1,286047006.8,N
1513198655.8,286047003.8,N
1513198675.7,286047005.3,N
1513198695.5,286047003.7,N
1513198715.4,286046998.6,N
1513198735.2,286047002.1,N
1513198755.0,286047004.1,N
1513198755.9,286047004.1,N
1513198775.8,286047001.2,N
1513198795.6,286047002.4,N
